Location: Newark
(48.8833°N, 0.9236°W)
Time: 11:29:56
(UTC+00:00)

Tiros 1 despin weight - Pass Details

Date: 24 November 2019
Orbit: 594 x 642 km, 48.2° (Epoch: 10 December)

Event Time Altitude Azimuth Distance (km) Brightness Sun altitude
Rises 12:12:55 0° 239° (WSW) 2,823 ? 20.4°
Reaches altitude 10° 12:15:14 10° 235° (SW) 1,922 ? 20.3°
Maximum altitude 12:19:30 52° 159° (SSE) 738 ? 20.3°
Drops below altitude 10° 12:23:48 10° 83° (E) 1,933 ? 20.2°
Sets 12:26:08 0° 79° (ENE) 2,842 ? 20.1°
